| time (UTC) | temp F | wind direction | speed knots | gust knots | rain 1hr in | rain 24hr in | rain mn in | humidity % | barometer mb |
| 20260506061500 | 51 | 55 | 1.7 | 2.6 | 0.00 | 0.04 | 0.47 | 99 | 1007.9 |
| 20260506044501 | 51 | 97 | 4.3 | 5.2 | 0.00 | 0.03 | 0.46 | 99 | 1008.5 |
| 20260506043000 | 51 | 93 | 2.6 | 3.5 | 0.00 | 0.03 | 0.46 | 99 | 1008.4 |
| 20260506041500 | 51 | 73 | 1.7 | 4.3 | 0.00 | 0.03 | 0.46 | 99 | 1008.8 |
| 20260506040001 | 51 | 64 | 2.6 | 5.2 | 0.00 | 0.03 | 0.46 | 99 | 1008.8 |
| 20260506034501 | 51 | 80 | 1.7 | 3.5 | 0.00 | 0.03 | 0.46 | 99 | 1008.9 |
| 20260506033001 | 51 | 86 | 0.0 | 2.6 | 0.00 | 0.03 | 0.46 | 99 | 1009.1 |
| 20260506031500 | 51 | 228 | 0.0 | 1.7 | 0.00 | 0.03 | 0.46 | 99 | 1009.1 |
| 20260506030000 | 51 | 104 | 1.7 | 3.5 | 0.00 | 0.03 | 0.46 | 99 | 1009.3 |
| 20260506024501 | 51 | 152 | 0.9 | 2.6 | 0.00 | 0.03 | 0.46 | 99 | 1009.6 |
| 20260506023001 | 51 | 74 | 5.2 | 6.1 | 0.00 | 0.03 | 0.46 | 99 | 1009.6 |
| 20260506021501 | 51 | 95 | 5.2 | 5.2 | 0.00 | 0.03 | 0.46 | 99 | 1009.6 |
| 20260506020000 | 51 | 85 | 3.5 | 6.1 | 0.01 | 0.03 | 0.46 | 99 | 1009.9 |
| 20260506014500 | 51 | 95 | 1.7 | 1.7 | 0.02 | 0.03 | 0.46 | 99 | 1009.7 |
| 20260506013000 | 51 | 84 | 1.7 | 3.5 | 0.02 | 0.03 | 0.46 | 99 | 1009.8 |
| 20260506011500 | 51 | 99 | 0.9 | 2.6 | 0.02 | 0.02 | 0.46 | 99 | 1010.2 |
| 20260506010001 | 51 | 298 | 1.7 | 1.7 | 0.02 | 0.02 | 0.45 | 99 | 1010.3 |
| 20260506004500 | 51 | 229 | 0.9 | 2.6 | 0.01 | 0.01 | 0.44 | 99 | 1010.8 |
| 20260506003001 | 51 | 234 | 1.7 | 3.5 | 0.01 | 0.01 | 0.44 | 98 | 1010.9 |
| 20260506001501 | 51 | 2 | 1.7 | 1.7 | 0.00 | 0.00 | 0.43 | 98 | 1010.9 |
| 20260506000000 | 52 | 169 | 1.7 | 2.6 | 0.00 | 0.00 | 0.43 | 98 | 1011.4 |
| 20260505234500 | 52 | 147 | 0.9 | 1.7 | 0.00 | 0.00 | 0.43 | 99 | 1011.6 |
| 20260505233001 | 52 | 97 | 0.9 | 4.3 | 0.00 | 0.00 | 0.43 | 99 | 1011.5 |
| 20260505231501 | 52 | 84 | 2.6 | 2.6 | 0.00 | 0.00 | 0.43 | 99 | 1011.7 |
| 20260505230000 | 52 | 84 | 1.7 | 2.6 | 0.00 | 0.00 | 0.43 | 99 | 1011.4 |
| 20260505224501 | 52 | 92 | 0.9 | 4.3 | 0.00 | 0.00 | 0.43 | 99 | 1011.4 |
| 20260505223000 | 52 | 80 | 0.9 | 3.5 | 0.00 | 0.00 | 0.43 | 99 | 1012.0 |
| 20260505221501 | 52 | 106 | 1.7 | 2.6 | 0.00 | 0.00 | 0.43 | 99 | 1012.0 |
| 20260505220001 | 52 | 64 | 4.3 | 5.2 | 0.00 | 0.43 | 0.43 | 99 | 1011.8 |
| 20260505214501 | 52 | 40 | 1.7 | 3.5 | 0.00 | 0.43 | 0.43 | 99 | 1012.1 |
| 20260505213000 | 52 | 78 | 2.6 | 3.5 | 0.00 | 0.43 | 0.43 | 99 | 1012.4 |
| 20260505211500 | 52 | 93 | 1.7 | 4.3 | 0.00 | 0.43 | 0.43 | 99 | 1012.5 |
| 20260505210001 | 52 | 103 | 2.6 | 3.5 | 0.00 | 0.43 | 0.43 | 99 | 1012.4 |
| 20260505204500 | 52 | 97 | 1.7 | 4.3 | 0.00 | 0.43 | 0.43 | 99 | 1012.6 |
| 20260505203000 | 52 | 79 | 3.5 | 6.1 | 0.00 | 0.43 | 0.43 | 98 | 1012.4 |
| 20260505201500 | 52 | 67 | 1.7 | 3.5 | 0.00 | 0.43 | 0.43 | 98 | 1012.5 |
| 20260505200000 | 52 | 87 | 2.6 | 2.6 | 0.00 | 0.43 | 0.43 | 98 | 1012.7 |
| 20260505194500 | 52 | 87 | 2.6 | 2.6 | 0.00 | 0.43 | 0.43 | 98 | 1012.5 |
| 20260505193000 | 52 | 85 | 0.9 | 3.5 | 0.00 | 0.43 | 0.43 | 98 | 1012.3 |
| 20260505191501 | 53 | 76 | 2.6 | 3.5 | 0.00 | 0.43 | 0.43 | 98 | 1012.2 |
| 20260505190001 | 52 | 91 | 0.9 | 1.7 | 0.00 | 0.43 | 0.43 | 98 | 1012.3 |
| 20260505184500 | 52 | 88 | 1.7 | 1.7 | 0.00 | 0.43 | 0.43 | 98 | 1012.2 |
| 20260505183001 | 53 | 114 | 2.6 | 4.3 | 0.00 | 0.43 | 0.43 | 97 | 1012.1 |
| 20260505181501 | 53 | 96 | 2.6 | 2.6 | 0.00 | 0.43 | 0.43 | 97 | 1012.2 |
| 20260505180001 | 53 | 142 | 0.0 | 1.7 | 0.01 | 0.43 | 0.43 | 96 | 1012.3 |
| 20260505174500 | 53 | 43 | 0.0 | 0.9 | 0.01 | 0.43 | 0.43 | 96 | 1012.1 |
| 20260505173000 | 53 | 2 | 1.7 | 2.6 | 0.01 | 0.43 | 0.43 | 95 | 1012.3 |
| 20260505171500 | 53 | 302 | 0.0 | 1.7 | 0.00 | 0.42 | 0.43 | 94 | 1012.3 |
| 20260505170000 | 53 | 128 | 1.7 | 1.7 | 0.00 | 0.42 | 0.43 | 94 | 1012.3 |
| 20260505164500 | 54 | 288 | 0.0 | 1.7 | 0.00 | 0.42 | 0.43 | 93 | 1012.1 |
| 20260505163000 | 54 | 184 | 0.0 | 1.7 | 0.00 | 0.42 | 0.43 | 91 | 1012.4 |
| 20260505161501 | 55 | 203 | 0.0 | 0.9 | 0.00 | 0.42 | 0.43 | 89 | 1012.4 |
| 20260505153000 | 55 | 131 | 1.7 | 2.6 | 0.00 | 0.42 | 0.43 | 88 | 1012.7 |
| 20260505151500 | 53 | 127 | 0.9 | 1.7 | 0.00 | 0.42 | 0.43 | 93 | 1012.7 |
| 20260505124501 | 52 | 257 | 2.6 | 5.2 | 0.00 | 0.42 | 0.43 | 98 | 1013.2 |
| 20260505123000 | 51 | 266 | 2.6 | 4.3 | 0.00 | 0.42 | 0.43 | 98 | 1013.1 |
| 20260505121501 | 50 | 101 | 0.0 | 1.7 | 0.00 | 0.42 | 0.43 | 99 | 1013.3 |
| 20260505120000 | 50 | 181 | 2.6 | 4.3 | 0.00 | 0.42 | 0.43 | 98 | 1013.4 |
| 20260505114500 | 50 | 200 | 1.7 | 3.5 | 0.00 | 0.42 | 0.43 | 98 | 1013.1 |
| 20260505113001 | 50 | 262 | 4.3 | 5.2 | 0.00 | 0.42 | 0.43 | 98 | 1013.2 |
| 20260505111500 | 51 | 235 | 3.5 | 5.2 | 0.00 | 0.42 | 0.43 | 99 | 1013.5 |
| 20260505101500 | 49 | 222 | 2.6 | 3.5 | 0.00 | 0.42 | 0.43 | 99 | 1013.4 |
| 20260505100000 | 49 | 218 | 2.6 | 4.3 | 0.01 | 0.42 | 0.43 | 99 | 1013.7 |
| 20260505094500 | 49 | 231 | 1.7 | 4.3 | 0.00 | 0.41 | 0.42 | 99 | 1013.6 |
| 20260505093000 | 48 | 213 | 1.7 | 3.5 | 0.00 | 0.41 | 0.42 | 99 | 1013.6 |
| 20260505091501 | 49 | 200 | 3.5 | 4.3 | 0.00 | 0.41 | 0.42 | 99 | 1013.2 |
| 20260505090001 | 48 | 210 | 2.6 | 5.2 | 0.00 | 0.41 | 0.42 | 99 | 1013.4 |
| 20260505084500 | 49 | 277 | 3.5 | 5.2 | 0.00 | 0.41 | 0.42 | 99 | 1013.3 |
| 20260505083000 | 48 | 226 | 2.6 | 5.2 | 0.00 | 0.41 | 0.42 | 99 | 1013.4 |
| 20260505081500 | 48 | 262 | 1.7 | 5.2 | 0.00 | 0.41 | 0.42 | 99 | 1013.2 |
| 20260505080000 | 48 | 212 | 2.6 | 4.3 | 0.00 | 0.41 | 0.42 | 99 | 1013.2 |
| 20260505074500 | 48 | 230 | 2.6 | 3.5 | 0.00 | 0.41 | 0.42 | 99 | 1013.1 |
| 20260505073000 | 48 | 226 | 3.5 | 4.3 | 0.00 | 0.41 | 0.42 | 99 | 1013.2 |
| 20260505071500 | 48 | 229 | 1.7 | 3.5 | 0.00 | 0.41 | 0.42 | 99 | 1013.1 |